MHROMHTG

Guest
Details From MHRO - Roatan
To MHTG - Tegucigalpa Toncontin Intl
Flight Number -
Tags generated
Created
Modified
Stats Distance 143 nm / 265 km
Max Altitude 14,300 ft / 4,359 m
Waypoints 5
Social Downloads 1
Likes 0
Share

Download

Looking for another format? Having issues loading an existing format? Contact us
Advertisement - Login to hide

Notes

Basic altitude profile: - Ascent Rate: 2500ft/min - Ascent Speed: 250kts - Cruise Altitude: 23000ft - Cruise Speed: 420kts - Descent Rate: 1500ft/min - Descent Speed: 250kts Options: - Use NATs: yes - Use PACOTS: yes - Use low airways: yes - Use high airways: yes

Route

MHRO ROA R645 BTO A754 TALAG MHTG

ID Type Via Altitude (ft/m) Position (lat/lon) Dist (leg/tot) Name
O MHRO APT - 0 / 0 16.31682 / -86.52296 - / 0 nm Roatan
ROA VOR - 0 / 0 16.31655 / -86.52178 0 / 0 nm ROATAN VOR-DME
BTO VOR R645 (AWY-LO) 14,300 / 4,359 15.73676 / -86.86397 40 / 40 nm BONITO VOR-DME
TALAG FIX A754 (AWY-LO) 10,000 / 3,048 14.43639 / -87.14278 79 / 119 nm
O MHTG APT - 0 / 0 14.06088 / -87.21720 22 / 142 nm Tegucigalpa Toncontin Intl

Altitude Profile

Advertisement - Login to hide

MHRO

Details ICAO MHRO (RTB)
Name Roatan
Region Honduras
Timezone Unknown
Stats Elevation 18 ft / 5 m (AMSL)
Location 16.316600° -86.523400°
Runways 1
Magnetic Variation 2.023° W

METAR

MHRO 192100Z 10014KT 9999 FEW024CB SCT220 31/25 Q1009 A2980 NOSIG

Decode

TAF

TAF MHRO 191700Z 1918/2018 09018KT 9999 FEW025 TX31/1919Z TN26/2012Z

Decode

Departure Runways

ID Width Length Bearing (true/mag) Surface Threshold Overrun Markings Lighting
07 148 ft / 45 m 7,672 ft / 2,338 m 65.02° / 67.04° ASPHALT 518 ft / 158 m 0 ft / 0 m PREC-APP EDGE THRESHOLD
25 148 ft / 45 m 7,672 ft / 2,338 m 245.02° / 247.05° ASPHALT 0 ft / 0 m 0 ft / 0 m PREC-APP EDGE THRESHOLD

MHTG

Details ICAO MHTG (TGU)
Name Toncontin Intl
Region Honduras
Timezone America/Tegucigalpa (UTC-6.0)
Stats Elevation 3,307 ft / 1,008 m (AMSL)
Location 14.060300° -87.217400°
Runways 1
Magnetic Variation 1.285° W

METAR

MHTG 192120Z 24006KT 5000 TSVCSH FU FEW032CB SCT034TCU 23/20 Q1016 A3000 RESH

Decode

TAF

TAF MHTG 191700Z 1918/2018 20004KT 8000 SCT030TCU FEW035CB TX31/1921Z TN18/2012Z TEMPO 1921/2003 5000 TSSHRA BECMG 2003/2005 VRB02KT 8000 NSW FEW012 SCT028 BECMG 2010/2012 5000 FU

Decode

Destination Runways

ID Width Length Bearing (true/mag) Surface Threshold Overrun Markings Lighting
02 151 ft / 46 m 6,637 ft / 2,023 m 18.85° / 20.13° ASPHALT 1,161 ft / 354 m 187 ft / 57 m APP EDGE THRESHOLD REIL-OMNI
20 151 ft / 46 m 6,637 ft / 2,023 m 198.85° / 200.13° ASPHALT 0 ft / 0 m 239 ft / 73 m APP EDGE THRESHOLD REIL-OMNI

Popular Alternatives